Baker, MT

8:12 PM MST on February 19, 2017 (GMT -0700)
Baker Municipal

Weather History for KBHK - October, 2010

Change the Weather History Date:

Tuesday, October 19, 2010

  Actual Average Record
Temperature  
Mean Temperature 46 °F -  
Max Temperature 62 °F 56 °F 82 °F (2003)
Min Temperature 30 °F 35 °F 19 °F (2002)
Degree Days  
Heating Degree Days 19    
Moisture  
Dew Point 27 °F    
Average Humidity 52    
Maximum Humidity 79    
Minimum Humidity 22    
Precipitation  
Precipitation 0.00 in - - ()
Sea Level Pressure  
Sea Level Pressure 30.03 in    
Wind  
Wind Speed 5 mph (WNW)    
Max Wind Speed 20 mph    
Max Gust Speed 30 mph    
Visibility 10 miles    
Events      
Averages and records for this station are not official NWS values.
T = Trace of Precipitation, MM = Missing Value Source: NWS Daily Summary

Daily Weather History Graph

Daily Weather History Graph

Search for Another Location

Airport or City:

Trip Planner

Search our weather history database for the weather conditions in past years. The results will help you decide how hot, cold, wet, or windy it might be!

Date:

Astronomy

Oct. 19, 2010 Rise Set
Actual Time 7:19 AM MDT 6:03 PM MDT
Civil Twilight 6:49 AM MDT 6:33 PM MDT
Nautical Twilight 6:14 AM MDT 7:08 PM MDT
Astronomical Twilight 5:39 AM MDT 7:43 PM MDT
Moon 4:20 PM MDT (10/19) 3:58 AM MDT (10/19)
Length of Visible Light 11h 44m
Length of Day
10h 43m
Waxing Gibbous, 90% of the Moon is Illuminated
Oct 19
Waxing Gibbous
Oct 22
Full
Oct 30
Last Quarter
Nov 5
New
Nov 13
First Quarter

Hourly Weather History & Observations

Time (MDT) Temp. Windchill Dew Point Humidity Pressure Visibility Wind Dir Wind Speed Gust Speed Precip Events Conditions
12:53 AM 42.1 °F - 24.1 °F 49% 29.99 in 10.0 mi Calm Calm - N/A   Clear
1:53 AM 39.0 °F - 27.0 °F 62% 29.99 in 10.0 mi Calm Calm - N/A   Clear
2:53 AM 36.0 °F - 26.1 °F 67% 29.99 in 10.0 mi Calm Calm - N/A   Clear
3:53 AM 33.1 °F - 23.0 °F 66% 30.00 in 10.0 mi Calm Calm - N/A   Clear
4:53 AM 32.0 °F - 21.9 °F 66% 30.00 in 10.0 mi Calm Calm - N/A   Clear
5:53 AM 32.0 °F - 23.0 °F 69% 30.02 in 10.0 mi Calm Calm - N/A   Clear
6:53 AM 30.9 °F 27.5 °F 25.0 °F 79% 30.06 in 10.0 mi NNW 3.5 mph - N/A   Clear
7:53 AM 35.1 °F 27.9 °F 28.0 °F 76% 30.07 in 10.0 mi West 9.2 mph - N/A   Clear
8:53 AM 42.1 °F 35.7 °F 28.9 °F 60% 30.08 in 10.0 mi West 11.5 mph - N/A   Clear
9:53 AM 46.0 °F 40.6 °F 28.0 °F 50% 30.09 in 10.0 mi WNW 11.5 mph - N/A   Clear
10:53 AM 52.0 °F - 27.0 °F 38% 30.08 in 10.0 mi West 11.5 mph - N/A   Clear
11:53 AM 57.0 °F - 24.1 °F 28% 30.04 in 10.0 mi West 15.0 mph - N/A   Clear
1:53 PM 61.0 °F - 21.9 °F 22% 30.01 in 10.0 mi WNW 19.6 mph 29.9 mph N/A   Clear
2:53 PM 62.1 °F - 26.1 °F 25% 30.01 in 10.0 mi WNW 18.4 mph 23.0 mph N/A   Clear
3:53 PM 61.0 °F - 28.0 °F 29% 30.01 in 10.0 mi WNW 17.3 mph 24.2 mph N/A   Clear
4:53 PM 57.9 °F - 28.9 °F 33% 30.02 in 10.0 mi WNW 11.5 mph - N/A   Clear
5:53 PM 52.0 °F - 30.0 °F 43% 30.03 in 10.0 mi West 9.2 mph - N/A   Clear
6:53 PM 46.9 °F - 28.9 °F 50% 30.05 in 10.0 mi West 8.1 mph - N/A   Clear
7:53 PM 46.0 °F 42.5 °F 28.9 °F 51% 30.04 in 10.0 mi WSW 6.9 mph - N/A   Clear
8:53 PM 46.0 °F 44.8 °F 28.0 °F 50% 30.02 in 10.0 mi West 3.5 mph - N/A   Clear
9:53 PM 45.0 °F - 28.9 °F 53% 30.01 in 10.0 mi Calm Calm - N/A   Clear
10:53 PM 42.1 °F - 28.0 °F 58% 30.00 in 10.0 mi Calm Calm - N/A   Clear
11:53 PM 37.9 °F - 30.0 °F 73% 30.00 in 10.0 mi Calm Calm - N/A   Clear